DW2150 Weather Reports


time (UTC)temp
C
wind
direction
speed
KPH
gust
KPH
rain 1hr
cm
rain 24hr
cm
rain mn
cm
humidity
%
barometer
mb
20260831231127 32 97 0.0 3.2 0.00 0.00 0.00 74 1013.9
20260831230624 32 97 0.0 3.2 0.00 0.00 0.00 74 1013.9
20260831230121 32 97 1.6 4.8 0.00 0.00 0.00 74 1014.2
20260831225617 32 98 1.6 4.8 0.00 0.00 0.00 75 1014.2
20260831225012 32 98 1.6 4.8 0.00 0.00 0.00 76 1014.2
20260831224509 32 100 1.6 3.2 0.00 0.00 0.00 75 1013.9
20260831224005 32 322 1.6 3.2 0.00 0.00 0.00 75 1014.2
20260831223431 32 253 0.0 1.6 0.00 0.00 0.00 76 1014.2
20260831222859 32 253 1.6 1.6 0.00 0.00 0.00 77 1014.2
20260831222356 32 253 0.0 1.6 0.00 0.00 0.00 77 1014.2
20260831221853 32 248 0.0 1.6 0.00 0.00 0.00 77 1014.2
20260831221349 31 248 0.0 1.6 0.00 0.00 0.00 78 1014.2
20260831220813 31 248 0.0 1.6 0.00 0.00 0.00 78 1014.2
20260831220239 31 248 0.0 1.6 0.00 0.00 0.00 79 1014.2
20260831215634 31 248 0.0 1.6 0.00 0.00 0.00 79 1014.2
20260831215131 31 248 0.0 0.0 0.00 0.00 0.00 79 1014.6
20260831214628 31 248 0.0 4.8 0.00 0.00 0.00 79 1014.6
20260831214125 31 248 0.0 6.4 0.00 0.00 0.00 79 1014.6
20260831213551 31 248 0.0 6.4 0.00 0.00 0.00 79 1014.6
20260831213049 31 248 0.0 6.4 0.00 0.00 0.00 79 1014.6
20260831212545 31 248 3.2 6.4 0.00 0.00 0.00 79 1014.9
20260831212042 31 247 1.6 3.2 0.00 0.00 0.00 80 1014.9
20260831211539 31 247 1.6 3.2 0.00 0.00 0.00 80 1014.9
20260831211036 30 247 0.0 14.5 0.00 0.00 0.00 80 1014.9
20260831210533 30 246 0.0 14.5 0.00 0.00 0.00 80 1014.9
20260831210030 30 252 1.6 14.5 0.00 0.00 0.00 79 1015.2
20260831205456 31 257 6.4 14.5 0.00 0.00 0.00 78 1015.2
20260831204953 31 253 4.8 11.3 0.00 0.00 0.00 80 1015.2
20260831204450 31 269 1.6 6.4 0.00 0.00 0.00 80 1015.6
20260831203827 30 259 1.6 4.8 0.00 0.00 0.00 82 1015.6
20260831203253 30 258 1.6 4.8 0.00 0.00 0.00 81 1015.6
20260831202750 31 259 1.6 8.0 0.00 0.00 0.00 81 1015.6
20260831202246 31 15 3.2 24.1 0.00 0.00 0.00 80 1015.6
20260831201742 31 67 1.6 25.7 0.00 0.00 0.00 78 1015.6
20260831201239 32 76 3.2 25.7 0.00 0.00 0.00 78 1015.6
20260831200705 33 75 4.8 6.4 0.00 0.00 0.00 74 1015.6
20260831200144 33 265 1.6 4.8 0.00 0.00 0.00 72 1015.6
20260831195640 34 265 1.6 6.4 0.00 0.00 0.00 71 1015.6
20260831195106 35 302 1.6 14.5 0.00 0.00 0.00 69 1015.6
20260831194501 35 349 1.6 14.5 0.00 0.00 0.00 67 1015.6
20260831193958 35 33 3.2 14.5 0.00 0.00 0.00 66 1015.6
20260831193455 35 70 4.8 14.5 0.00 0.00 0.00 65 1015.6
20260831192921 35 344 3.2 9.7 0.00 0.00 0.00 65 1015.6
20260831192418 35 359 1.6 9.7 0.00 0.00 0.00 66 1015.6
20260831191915 35 101 3.2 9.7 0.00 0.00 0.00 66 1015.9
20260831191340 35 262 1.6 8.0 0.00 0.00 0.00 66 1015.9
20260831190806 36 83 4.8 8.0 0.00 0.00 0.00 62 1015.9
20260831190303 36 57 1.6 8.0 0.00 0.00 0.00 63 1015.9
20260831185759 36 48 1.6 8.0 0.00 0.00 0.00 62 1015.9
20260831185257 36 11 4.8 8.0 0.00 0.00 0.00 63 1015.9
20260831184753 35 329 3.2 4.8 0.00 0.00 0.00 66 1015.9
20260831184250 35 349 1.6 4.8 0.00 0.00 0.00 67 1016.3
20260831183747 35 3 1.6 4.8 0.00 0.00 0.00 67 1016.3
20260831183244 35 48 1.6 9.7 0.00 0.00 0.00 68 1016.3
20260831182741 34 307 1.6 9.7 0.00 0.00 0.00 70 1016.3
20260831182237 33 338 1.6 9.7 0.00 0.00 0.00 69 1016.3
20260831181703 34 16 1.6 6.4 0.00 0.00 0.00 67 1016.3
20260831181158 34 112 1.6 4.8 0.00 0.00 0.00 69 1016.6
20260831180656 34 37 1.6 4.8 0.00 0.00 0.00 68 1016.6
20260831180153 34 18 1.6 6.4 0.00 0.00 0.00 69 1016.6
20260831175648 33 3 3.2 6.4 0.00 0.00 0.00 68 1016.6
20260831175144 33 42 1.6 9.7 0.00 0.00 0.00 68 1016.6
20260831174539 33 7 3.2 9.7 0.00 0.00 0.00 73 1016.6
20260831174036 33 278 1.6 9.7 0.00 0.00 0.00 73 1016.6
20260831173533 33 18 4.8 9.7 0.00 0.00 0.00 73 1016.6
20260831173030 33 74 3.2 8.0 0.00 0.00 0.00 74 1016.9
20260831172527 33 28 3.2 9.7 0.00 0.00 0.00 73 1016.9
20260831171954 33 54 3.2 11.3 0.00 0.00 0.00 73 1016.9
20260831171418 33 23 3.2 11.3 0.00 0.00 0.00 74 1016.9
20260831170915 33 22 1.6 8.0 0.00 0.00 0.00 76 1016.9
20260831170412 33 9 1.6 4.8 0.00 0.00 0.00 74 1016.9
20260831165909 32 309 3.2 4.8 0.00 0.00 0.00 76 1016.9
20260831165406 32 290 1.6 11.3 0.00 0.00 0.00 77 1016.9
20260831164843 32 266 1.6 11.3 0.00 0.00 0.00 75 1016.9
20260831164340 32 24 1.6 11.3 0.00 0.00 0.00 77 1017.3
20260831163835 32 52 3.2 11.3 0.00 0.00 0.00 76 1017.3
20260831163313 32 26 3.2 11.3 0.00 0.00 0.00 77 1016.9
20260831162810 32 52 1.6 9.7 0.00 0.00 0.00 80 1016.9
20260831162205 31 23 3.2 9.7 0.00 0.00 0.00 81 1016.9
20260831161702 31 285 3.2 4.8 0.00 0.00 0.00 83 1016.9
20260831161159 31 266 3.2 4.8 0.00 0.00 0.00 83 1017.3
20260831160656 31 148 1.6 8.0 0.00 0.00 0.00 83 1017.3
20260831160154 31 65 1.6 8.0 0.00 0.00 0.00 83 1017.3
20260831155650 30 86 1.6 8.0 0.00 0.00 0.00 85 1017.3
20260831155148 30 87 3.2 8.0 0.00 0.00 0.00 84 1016.9
20260831154645 30 27 3.2 4.8 0.00 0.00 0.00 84 1016.9
20260831154142 30 28 0.0 8.0 0.00 0.00 0.00 84 1017.3
20260831153639 30 19 1.6 8.0 0.00 0.00 0.00 85 1017.3
20260831153104 30 77 1.6 8.0 0.00 0.00 0.00 85 1016.9
20260831152602 30 35 3.2 8.0 0.00 0.00 0.00 86 1016.9
20260831152058 29 25 1.6 9.7 0.00 0.00 0.00 87 1016.9
20260831151524 29 58 4.8 9.7 0.00 0.00 0.00 87 1016.9
20260831151003 29 350 3.2 4.8 0.00 0.00 0.00 88 1016.9
20260831150500 28 17 1.6 4.8 0.00 0.00 0.00 88 1016.9
20260831145957 28 48 1.6 3.2 0.00 0.00 0.00 88 1016.9
20260831145454 28 44 1.6 3.2 0.00 0.00 0.00 89 1016.9
20260831144951 28 65 0.0 3.2 0.00 0.00 0.00 88 1016.9
20260831144416 28 68 0.0 3.2 0.00 0.00 0.00 89 1016.9
20260831143912 28 73 1.6 3.2 0.00 0.00 0.00 89 1016.9
20260831143338 27 347 0.0 0.0 0.00 0.00 0.00 89 1016.9
20260831142835 27 344 0.0 0.0 0.00 0.00 0.00 90 1016.9
20260831142333 27 344 0.0 0.0 0.00 0.00 0.00 90 1016.9
20260831141811 27 344 0.0 1.6 0.00 0.00 0.00 91 1016.9
20260831141308 27 344 0.0 1.6 0.00 0.00 0.00 91 1016.9
20260831140805 27 344 0.0 1.6 0.00 0.00 0.00 92 1016.9
20260831140302 27 344 0.0 1.6 0.00 0.00 0.00 93 1016.9
20260831135759 26 344 0.0 1.6 0.00 0.00 0.00 93 1016.9
20260831135256 26 344 1.6 1.6 0.00 0.00 0.00 94 1016.6
20260831134752 26 344 1.6 1.6 0.00 0.00 0.00 94 1016.6
20260831134248 26 342 0.0 0.0 0.00 0.00 0.00 94 1016.6
20260831133744 26 342 0.0 0.0 0.00 0.00 0.00 94 1016.6
20260831133240 26 342 0.0 0.0 0.00 0.00 0.00 94 1016.3
20260831132705 26 342 0.0 0.0 0.00 0.00 0.00 93 1016.3
20260831132203 26 342 0.0 0.0 0.00 0.00 0.00 94 1016.3
20260831131700 26 342 0.0 0.0 0.00 0.00 0.00 94 1016.3
20260831131156 26 342 0.0 0.0 0.00 0.00 0.00 94 1016.3
20260831130653 26 342 0.0 0.0 0.00 0.00 0.00 94 1016.3
20260831130150 26 342 0.0 0.0 0.00 0.00 0.00 94 1015.9
20260831125647 26 342 0.0 0.0 0.00 0.00 0.00 94 1015.9
20260831125125 26 342 0.0 0.0 0.00 0.00 0.00 93 1015.9
20260831124622 26 342 0.0 0.0 0.00 0.00 0.00 93 1015.9
20260831124119 26 342 0.0 0.0 0.00 0.00 0.00 93 1015.9
20260831123527 26 342 0.0 0.0 0.00 0.00 0.00 93 1015.6
20260831123024 26 342 0.0 0.0 0.00 0.00 0.00 94 1015.6
20260831122521 26 342 0.0 0.0 0.00 0.00 0.00 94 1015.6
20260831121916 26 342 0.0 0.0 0.00 0.00 0.00 94 1015.6
20260831121412 26 342 0.0 0.0 0.00 0.00 0.00 94 1015.6
20260831120852 25 342 0.0 0.0 0.00 0.00 0.00 93 1015.6
20260831120327 25 342 0.0 0.0 0.00 0.00 0.00 93 1015.2
20260831115808 26 342 0.0 0.0 0.00 0.00 0.00 93 1015.6
20260831115259 26 342 0.0 0.0 0.00 0.00 0.00 93 1015.6
20260831114755 26 342 0.0 0.0 0.00 0.00 0.00 93 1015.2
20260831114203 26 342 0.0 1.6 0.00 0.00 0.00 93 1015.2
20260831113558 26 342 0.0 1.6 0.00 0.00 0.00 94 1015.2
20260831113054 26 342 0.0 1.6 0.00 0.00 0.00 94 1015.2
20260831112520 26 342 0.0 1.6 0.00 0.00 0.00 94 1015.2
20260831112008 26 342 0.0 1.6 0.00 0.00 0.00 94 1015.2
20260831111446 25 342 0.0 1.6 0.00 0.00 0.00 93 1015.2
20260831110942 25 342 0.0 0.0 0.00 0.00 0.00 93 1015.2
20260831110440 25 342 0.0 0.0 0.00 0.00 0.00 93 1014.9
20260831105937 25 342 0.0 0.0 0.00 0.00 0.00 93 1014.9
20260831105433 25 342 0.0 0.0 0.00 0.00 0.00 93 1014.9
20260831104900 25 342 0.0 0.0 0.00 0.00 0.00 93 1014.9
20260831104326 25 342 0.0 0.0 0.00 0.00 0.00 93 1015.2
20260831103823 26 342 0.0 0.0 0.00 0.00 0.00 93 1015.2
20260831103320 25 342 0.0 0.0 0.00 0.00 0.00 93 1015.2
20260831102758 25 342 0.0 0.0 0.00 0.00 0.00 93 1015.2
20260831102254 25 342 0.0 0.0 0.00 0.00 0.00 93 1015.2
20260831101750 25 342 0.0 0.0 0.00 0.00 0.00 93 1015.2
20260831101134 25 342 0.0 0.0 0.00 0.00 0.00 93 1015.2
20260831100612 25 342 0.0 0.0 0.00 0.00 0.00 92 1015.2
20260831100107 25 342 0.0 0.0 0.00 0.00 0.00 93 1015.2
20260831095532 25 342 0.0 0.0 0.00 0.00 0.00 92 1015.2
20260831095029 26 342 0.0 0.0 0.00 0.00 0.00 92 1015.2
20260831094353 26 342 0.0 0.0 0.00 0.00 0.00 92 1015.2
20260831093851 26 342 0.0 0.0 0.00 0.00 0.00 92 1015.2
20260831093348 26 342 0.0 0.0 0.00 0.00 0.00 92 1015.2
20260831092845 26 342 0.0 0.0 0.00 0.00 0.00 92 1015.2
20260831092342 26 342 0.0 0.0 0.00 0.00 0.00 92 1015.2
20260831091808 26 342 0.0 0.0 0.00 0.00 0.00 92 1015.2
20260831091234 26 342 0.0 0.0 0.00 0.00 0.00 92 1014.9
20260831090731 26 342 0.0 0.0 0.00 0.00 0.00 92 1014.9
20260831090139 26 342 0.0 0.0 0.00 0.00 0.00 92 1014.9
20260831085636 26 342 0.0 0.0 0.00 0.00 0.00 92 1014.9
20260831085133 26 342 0.0 0.0 0.00 0.00 0.00 92 1014.9
20260831084630 26 342 0.0 0.0 0.00 0.00 0.00 92 1015.2
20260831084127 26 342 0.0 0.0 0.00 0.00 0.00 92 1015.2
20260831083624 26 342 0.0 0.0 0.00 0.00 0.00 92 1015.2
20260831083121 26 342 0.0 0.0 0.00 0.00 0.00 92 1015.2
20260831082618 26 342 0.0 0.0 0.00 0.00 0.00 92 1015.2
20260831082045 26 342 0.0 0.0 0.00 0.00 0.00 92 1015.2
20260831081523 26 342 0.0 0.0 0.00 0.00 0.00 92 1015.2
20260831081020 26 342 0.0 0.0 0.00 0.00 0.00 92 1015.2
20260831080459 26 342 0.0 0.0 0.00 0.00 0.00 92 1015.6
20260831075951 26 342 0.0 0.0 0.00 0.00 0.00 91 1015.6
20260831075446 26 342 0.0 0.0 0.00 0.00 0.00 91 1015.2
20260831074944 26 342 0.0 0.0 0.00 0.00 0.00 91 1015.6
20260831074441 26 342 0.0 0.0 0.00 0.00 0.00 91 1015.6
20260831073938 26 342 0.0 0.0 0.00 0.00 0.00 91 1015.6
20260831073353 26 342 0.0 0.0 0.00 0.00 0.00 91 1015.2
20260831072800 26 342 0.0 0.0 0.00 0.00 0.00 91 1015.6
20260831072257 26 342 0.0 0.0 0.00 0.00 0.00 91 1015.2
20260831071735 26 342 0.0 0.0 0.00 0.00 0.00 91 1015.6
20260831071232 26 342 0.0 0.0 0.00 0.00 0.00 91 1015.6
20260831070658 26 342 0.0 0.0 0.00 0.00 0.00 91 1015.6
20260831070124 26 342 0.0 0.0 0.00 0.00 0.00 90 1015.6
20260831065559 26 342 0.0 0.0 0.00 0.00 0.00 90 1015.6
20260831065057 26 342 0.0 0.0 0.00 0.00 0.00 90 1015.6
20260831064554 26 342 0.0 0.0 0.00 0.00 0.00 90 1015.6
20260831064051 26 342 0.0 0.0 0.00 0.00 0.00 90 1015.6
20260831063548 26 342 0.0 0.0 0.00 0.00 0.00 90 1015.6
20260831063027 26 342 0.0 0.0 0.00 0.00 0.00 89 1015.6
20260831062524 26 342 0.0 0.0 0.00 0.00 0.00 90 1015.6
20260831062021 26 342 0.0 0.0 0.00 0.00 0.00 90 1015.9
20260831061518 26 342 0.0 0.0 0.00 0.00 0.00 90 1015.9
20260831060944 26 342 0.0 0.0 0.00 0.00 0.00 89 1015.6
20260831060440 26 342 0.0 0.0 0.00 0.00 0.00 89 1015.9
20260831055919 26 342 0.0 0.0 0.00 0.00 0.00 89 1015.6
20260831055358 26 342 0.0 0.0 0.00 0.00 0.00 89 1015.6
20260831054855 26 342 0.0 0.0 0.00 0.00 0.00 89 1015.6
20260831054352 26 342 0.0 0.0 0.00 0.00 0.00 89 1015.6
20260831053848 26 342 0.0 0.0 0.00 0.00 0.00 89 1015.6
20260831053243 26 342 0.0 0.0 0.00 0.00 0.00 89 1015.6
20260831052740 26 342 0.0 0.0 0.00 0.00 0.00 88 1015.6
20260831052236 26 342 0.0 0.0 0.00 0.00 0.00 88 1015.6
20260831051702 26 342 0.0 0.0 0.00 0.00 0.00 88 1015.6
20260831051159 26 342 0.0 0.0 0.00 0.00 0.00 88 1015.6
20260831050657 26 342 0.0 0.0 0.00 0.00 0.00 88 1015.6
20260831050134 27 342 0.0 0.0 0.00 0.00 0.00 88 1015.6
20260831045609 27 342 0.0 0.0 0.00 0.00 0.00 88 1015.6
20260831045105 27 342 0.0 0.0 0.00 0.00 0.00 87 1015.6
20260831044547 27 342 0.0 0.0 0.00 0.00 0.00 87 1015.6
20260831044013 27 342 0.0 0.0 0.00 0.00 0.00 87 1015.6
20260831043439 27 342 0.0 0.0 0.00 0.00 0.00 87 1015.6
20260831042936 27 342 0.0 0.0 0.00 0.00 0.00 87 1015.6
20260831042433 27 342 0.0 0.0 0.00 0.00 0.00 87 1015.6
20260831041929 27 342 0.0 0.0 0.00 0.00 0.00 86 1015.6
20260831041427 27 342 0.0 0.0 0.00 0.00 0.00 86 1015.6
20260831040717 27 342 0.0 0.0 0.00 0.00 0.00 86 1015.6
20260831040137 27 342 0.0 0.0 0.00 0.00 0.00 86 1015.6
20260831035634 27 342 0.0 0.0 0.00 0.00 0.00 86 1015.2
20260831035131 27 342 0.0 0.0 0.00 0.00 0.00 86 1015.2
20260831034628 27 342 0.0 1.6 0.00 0.00 0.00 85 1015.2
20260831034126 27 342 0.0 1.6 0.00 0.00 0.00 85 1015.2
20260831033623 27 342 0.0 1.6 0.00 0.00 0.00 85 1015.2
20260831033120 27 342 1.6 1.6 0.00 0.00 0.00 85 1015.2
20260831032617 27 342 0.0 0.0 0.00 0.00 0.00 85 1015.2
20260831032043 27 342 0.0 0.0 0.00 0.00 0.00 85 1015.2
20260831031521 27 342 0.0 0.0 0.00 0.00 0.00 84 1015.2
20260831030959 27 342 0.0 0.0 0.00 0.00 0.00 84 1015.2
20260831030456 28 342 0.0 0.0 0.00 0.00 0.00 84 1015.2
20260831025953 28 342 0.0 0.0 0.00 0.00 0.00 84 1014.9
20260831025450 28 342 0.0 0.0 0.00 0.00 0.00 83 1014.9
20260831024916 28 342 0.0 0.0 0.00 0.00 0.00 83 1014.9
20260831024406 28 342 0.0 0.0 0.00 0.00 0.00 83 1014.9
20260831023903 28 342 0.0 0.0 0.00 0.00 0.00 83 1014.9
20260831023400 28 342 0.0 0.0 0.00 0.00 0.00 82 1014.6
20260831022823 28 342 0.0 0.0 0.00 0.00 0.00 82 1014.6
20260831022237 28 342 0.0 0.0 0.00 0.00 0.00 82 1014.6
20260831021734 28 342 0.0 0.0 0.00 0.00 0.00 81 1014.6
20260831021212 28 342 0.0 0.0 0.00 0.00 0.00 81 1014.2
20260831020710 28 342 0.0 0.0 0.00 0.00 0.00 81 1014.2
20260831020148 28 342 0.0 0.0 0.00 0.00 0.00 81 1014.2
20260831015626 29 342 0.0 0.0 0.00 0.00 0.00 81 1014.2
20260831015123 29 342 0.0 0.0 0.00 0.00 0.00 80 1014.2
20260831014620 29 342 0.0 0.0 0.00 0.00 0.00 80 1014.2
20260831014117 29 342 0.0 0.0 0.00 0.00 0.00 79 1014.2
20260831013614 29 342 0.0 0.0 0.00 0.00 0.00 79 1014.2
20260831013110 30 342 0.0 1.6 0.00 0.00 0.00 78 1014.2
20260831012608 30 342 0.0 1.6 0.00 0.00 0.00 78 1014.2
20260831012104 30 342 0.0 1.6 0.00 0.00 0.00 77 1013.9
20260831011530 30 342 1.6 1.6 0.00 0.00 0.00 77 1014.2
20260831011027 30 342 0.0 1.6 0.00 0.00 0.00 77 1013.9
20260831010524 30 342 0.0 1.6 0.00 0.00 0.00 76 1013.9
20260831010002 30 342 0.0 3.2 0.00 0.00 0.00 76 1013.9
20260831005459 30 342 0.0 3.2 0.00 0.00 0.00 76 1013.9
20260831004957 30 342 0.0 3.2 0.00 0.00 0.00 75 1013.9
20260831004453 30 342 0.0 3.2 0.00 0.00 0.00 74 1013.9
20260831003951 31 343 0.0 3.2 0.00 0.00 0.00 74 1013.9
20260831003448 31 344 0.0 3.2 0.00 0.00 0.00 74 1013.9
20260831002945 31 344 0.0 3.2 0.00 0.00 0.00 73 1013.9
20260831002442 31 344 0.0 3.2 0.00 0.00 0.00 73 1013.9
20260831001938 31 344 0.0 3.2 0.00 0.00 0.00 73 1013.9
20260831001434 31 22 1.6 1.6 0.00 0.00 0.00 71 1013.9
20260831000913 32 22 0.0 1.6 0.00 0.00 0.00 71 1013.9
20260831000325 32 22 0.0 1.6 0.00 0.00 0.00 71 1014.2
20260830235821 32 22 0.0 3.2 0.00 0.00 0.00 70 1013.9
20260830235311 32 22 1.6 3.2 0.00 0.00 0.00 69 1013.9
20260830234755 32 22 0.0 3.2 0.00 0.00 0.00 68 1013.9
20260830234202 33 24 1.6 4.8 0.00 0.00 0.00 68 1013.9
20260830233640 33 123 1.6 4.8 0.00 0.00 0.00 67 1013.9
20260830233047 33 124 1.6 4.8 0.00 0.00 0.00 66 1013.9
20260830232544 33 272 1.6 4.8 0.00 0.00 0.00 66 1013.9
20260830232041 33 274 1.6 4.8 0.00 0.00 0.00 65 1013.9
20260830231539 33 135 1.6 3.2 0.00 0.00 0.00 65 1013.9